Location: Błonie
(52.1971°N, 20.6200°E)
Time: 10:14:03
(UTC+01:00)

ISS - Pass Details

Date: 25 January 2019
Orbit: 403 x 411 km, 51.6° (Epoch: 16 February)

Event Time Altitude Azimuth Distance (km) Brightness Sun altitude
Rises 18:29:29 0° 233° (SW) 2,330 1.0 -20.8°
Reaches altitude 10° 18:31:38 10° 225° (SW) 1,473 -0.3 -21.2°
Enters shadow 18:33:51 31° 193° (SSW) 747 -2.4 -21.5°
